Regional Weather Roundup
Issued by NWS Green Bay, WI

Home | Current Version | Previous Version | Text Only | Print | Product List | Glossary On
Versions: 1 2 3 4 5 6 7 8 9 10 11 12 13 14 15 16 17 18 19 20 21 22 23 24 25 26 27 28 29 30 31 32 33 34 35 36 37 38 39 40 41 42 43 44 45 46 47 48 49 50
000
ASUS43 KGRB 251110
RWRGRB

NORTH-CENTRAL AND NORTHEAST WISCONSIN REGIONAL WEATHER ROUNDUP
NATIONAL WEATHER SERVICE GREEN BAY WI
600 AM CDT SAT OCT 25 2014

WIZ005-009-010>012-018-019-251200-
NORTH CENTRAL WISCONSIN

CITY           SKY/WX    TMP DP  RH WIND       PRES   REMARKS
IRONWOOD       CLEAR     48  36  61 W12       29.78R
MANITOWISH WTR CLEAR     46  40  79 W6        29.81R
ARBOR VITAE    CLEAR     52  42  69 W8        29.81S
EAGLE RIVER    CLEAR     49  37  65 W9        29.79S
LAND O LAKES   CLEAR     48  41  79 W6        29.79S
RHINELANDER    CLEAR     46  39  76 W10       29.82S
PHILLIPS       CLEAR     45  41  86 W5        29.86R
ANTIGO         CLEAR     48  45  88 W9        29.83R
TOMAHAWK       CLEAR     46  40  77 W6        29.84S
MERRILL        CLEAR     47  44  88 W7        29.85R
$$

WIZ013-073-251200-
NORTHEAST WISCONSIN

CITY           SKY/WX    TMP DP  RH WIND       PRES   REMARKS
IRON MOUNTAIN  CLEAR     52  44  74 W12       29.74R
MARINETTE      CLEAR     54  48  82 W5        29.76R
OCONTO         CLEAR     53  53 100 W8        29.79R
$$

WIZ017-030-035>037-045-251200-
CENTRAL WISCONSIN

CITY           SKY/WX    TMP DP  RH WIND       PRES   REMARKS
MEDFORD        CLEAR     46  41  82 W7        29.87R
WAUSAU         CLEAR     50  47  89 W10       29.84R
MOSINEE        CLEAR     48  48 100 W10       29.87R
MARSHFIELD     CLEAR     50  45  83 W9        29.88R
WISC RAPIDS    CLEAR     51  48  89 W7        29.89R
STEVENS POINT  CLEAR     50  46  87 W8        29.87R
WAUPACA        CLEAR     54  52  94 W6        29.85S
SHAWANO        CLEAR     54  51  89 SW5       29.82R
CLINTONVILLE   CLEAR     52  50  93 W7        29.82S
$$

WIZ038-039-048-051-251200-
FOX VALLEY

CITY           SKY/WX    TMP DP  RH WIND       PRES   REMARKS
NWS GREEN BAY  CLEAR     54  52  93 W10       29.82R FOG
APPLETON       PTCLDY    52  52 100 W9        29.84R FOG
OSHKOSH        CLEAR     54  53  97 W7        29.84S FOG
FOND DU LAC    CLEAR     55  52  89 W7        29.86R
$$

WIZ022-050-052-251200-
EAST CENTRAL WISCONSIN

CITY           SKY/WX    TMP DP  RH WIND       PRES   REMARKS
STURGEON BAY   CLEAR     54  50  87 W10       29.79R
MANITOWOC      PTCLDY    56  53  90 W10       29.82R
SHEBOYGAN      MOCLDY    55  52  89 W9        29.84R
$$

LMZ563-521-522-541>543-251200-
LAKESHORE

STATION/POSITION TIME  TEMP    WIND        PRES    VSBY  WAVE
                       AIR SEA DIR/SP/G                  HT/PER
                 (UTC) (F)     (DEG/KT/KT) (MB)    (MI)  (FT/S)
SHEBOYGAN LKSHOR 1100   56 51  270/ 13/ 16 1010.3S
KEWAUNEE LKSHORE 1100   56     280/  7/ 11 1008.0R
NORTHPORT PIER   1100   54     250/  5/ 12 1007.1R
N MID LAKE BUOY  1100   54 51  260/ 17/ 19 1006.1F         4/ 5
SISTER BAY LKSHO 1100          250/ 12/ 14   N/A
CHAMBERS ISLAND  1100   53     210/  7/ 12 1008.1R
MENOMINEE LKSHOR 1100   54     250/  8/ 11 1008.6S
$$



USA.gov is the U.S. government's official web portal to all federal, state and local government web resources and services.